Terminal Aerodrome Forecast
Issued by NWS Greer, SC

Home | Current Version | Previous Version | Text Only | Print | Product List | Glossary On
Versions: 1 2 3 4 5 6 7 8 9 10 11 12 13 14 15 16 17 18 19 20 21 22 23 24 25 26 27 28 29 30 31 32 33 34 35 36 37 38 39 40
285
FTUS42 KGSP 252056 AAA
TAFCLT
TAF AMD
KCLT 252056Z 2521/2618 19009KT P6SM BKN060 BKN250
     FM260200 15004KT P6SM SCT050
     FM261000 16005KT P6SM BKN020 PROB30 2612/2614 2SM -SHRA OVC007
     FM261600 17009KT P6SM VCSH BKN020=

USA.gov is the U.S. government's official web portal to all federal, state and local government web resources and services.